JILIN-01 GAOFEN 3D 28 (52445 NORAD) Tracking and Keplerian Element Data

This shows tracking and keplerian element data for the satellite.

Feedback or suggestion? Click here.




ElementValue
Catalog52445
NameJILIN-01 GAOFEN 3D 28
Epoch Orbit1028
Epoch Day193.1740714
Epoch Year2022
RAAN257.8819
Inclination97.6782
Eccentricity0.0015184
Argument of Perigee43.2197
Mean Anonmoly41.2104
Mean Motion15.09870351
Decay Rate3.337E-05
L11 52445U 22048C 22193.17407140 .00003337 00000+0 20968-3 0 9990
L22 52445 97.6782 257.8819 0015184 43.2197 41.2104 15.09870351 10288

Live tracking and technical data element details for JILIN-01 GAOFEN 3D 28 (NORAD 52445). JILIN-01 GAOFEN 3D 28 can be tracked NOW for your location showing map with azimuth and elevation plus other details from your city location.

Track the satellite on the map from your city or location and see movement details for azimuth, elevation, latitude, longitude, range, height, and movement on the map or in text.







IsCatalogInMostPopularTable: catalog: 52445, numindb: 11
Update: records affected: 1



GetName: 52445 JILIN-01 GAOFEN 3D 28

Hit Count: updated at: Sun, 14 Aug 2022 00:39:51 GMT